Date String (YYYY-MM-DD hh:mm:ss) UTC,Instrument flags,absolute air pressure of the measurement (hPa),sample flow rate (lpm),inlet stack bypass flow (lpm),air temperature of the measurement (°C),ambient temperature measured by the external sensor (°C),aerosol sample conditioner tube jacket temperature (°C),OPC LED temperature (°C),internal box temperature (°C),relative humidity of the measurement (%),span deviation,mass concentration of particles derived from Lorenz-Mie calculation of OPC scattering (μg/m³),mass concentration of particles derived from Lorenz-Mie calculation of OPC scattering (μg/m³),mass concentration of particles derived from Lorenz-Mie calculation of OPC scattering (μg/m³)
DateTimeUTC,F1_M11,P_M11,Q1_M11,Q2_M11,T1_M11,T2_M11,T3_M11,T4_M11,T5_M11,U1_M11,ZSPAN_M11,X2_M11,X0_M11,X1_M11
2023-09-06 17:00:00,SystemResetWarning,0834.0,4.99,000.00,028.2,025.5,000.0,036.5,029.5,29.2,0002.1,0021.63,0031.46,0020.38
2023-09-06 17:01:00,SystemResetWarning,0834.1,5.01,000.00,028.1,024.6,000.0,036.5,029.3,29.6,0002.1,0021.54,0031.90,0020.30
2023-09-06 17:02:00,SystemResetWarning,0834.1,5.01,000.00,028.0,024.6,000.0,036.4,029.3,29.1,0002.2,0021.38,0032.13,0020.19
2023-09-06 17:03:00,SystemResetWarning,0834.0,5.00,000.00,028.0,024.9,000.0,036.4,029.3,29.4,0002.3,0021.22,0032.12,0020.05
2023-09-06 17:04:00,SystemResetWarning,0834.1,5.00,000.00,027.9,025.3,000.0,036.4,029.4,29.4,0002.2,0021.15,0032.10,0019.96
2023-09-06 17:05:00,SystemResetWarning,0834.4,5.00,000.00,028.0,025.7,000.0,036.4,029.5,29.4,0002.2,0021.00,0032.52,0019.80
2023-09-06 17:06:00,SystemResetWarning,0834.1,5.00,000.00,028.0,026.0,000.0,036.4,029.6,29.1,0002.2,0020.89,0033.04,0019.70
2023-09-06 17:07:00,SystemResetWarning,0834.0,5.00,000.00,028.0,026.3,000.0,036.4,029.6,29.0,0002.1,0020.67,0033.14,0019.57
2023-09-06 17:08:00,SystemResetWarning,0833.9,5.00,000.00,028.1,026.5,000.0,036.5,029.7,29.0,0002.1,0020.53,0032.71,0019.46
2023-09-06 17:09:00,SystemResetWarning,0834.0,5.00,000.00,028.1,026.7,000.0,036.5,029.8,29.3,0002.0,0020.38,0032.42,0019.32
2023-09-06 17:10:00,SystemResetWarning,0834.1,5.00,000.00,028.1,026.9,000.0,036.5,029.8,29.6,0002.0,0020.32,0032.43,0019.25
2023-09-06 17:11:00,SystemResetWarning,0834.2,5.00,000.00,028.2,027.1,000.0,036.5,029.9,28.9,0002.0,0020.29,0032.16,0019.21
2023-09-06 17:12:00,SystemResetWarning,0834.2,5.00,000.00,028.2,027.2,000.0,036.5,029.9,28.8,0002.0,0020.31,0031.60,0019.20
2023-09-06 17:13:00,SystemResetWarning,0834.1,5.00,000.00,028.3,027.3,000.0,036.6,030.0,28.9,0002.1,0020.31,0030.94,0019.22
2023-09-06 17:14:00,SystemResetWarning,0834.1,5.00,000.00,028.3,027.3,000.0,036.6,030.0,28.8,0002.0,0020.35,0030.67,0019.23
2023-09-06 17:15:00,SystemResetWarning,0834.1,4.98,000.00,028.3,026.3,000.0,036.5,029.8,28.5,0002.0,0020.29,0030.72,0019.19
2023-09-06 17:16:00,SystemResetWarning,0834.1,5.00,000.00,028.2,024.9,000.0,036.5,029.4,28.8,0002.0,0020.27,0030.45,0019.15
2023-09-06 17:17:00,SystemResetWarning,0834.1,5.01,000.00,028.1,024.5,000.0,036.4,029.3,28.7,0002.1,0020.29,0030.06,0019.14
2023-09-06 17:18:00,SystemResetWarning,0834.0,5.01,000.00,028.0,024.8,000.0,036.4,029.3,29.0,0002.2,0020.33,0029.47,0019.12
2023-09-06 17:19:00,SystemResetWarning,0833.9,4.99,000.00,028.0,025.1,000.0,036.4,029.4,29.0,0002.2,0020.37,0029.87,0019.11
2023-09-06 17:20:00,SystemResetWarning,0834.0,4.99,000.00,028.0,025.5,000.0,036.4,029.5,29.2,0002.3,0020.35,0030.45,0019.09
2023-09-06 17:21:00,SystemResetWarning,0833.9,5.00,000.00,028.0,025.9,000.0,036.4,029.5,29.1,0002.3,0020.32,0030.47,0019.08
2023-09-06 17:22:00,SystemResetWarning,0834.0,5.00,000.00,028.0,026.2,000.0,036.4,029.6,29.2,0002.4,0020.33,0030.45,0019.09
2023-09-06 17:23:00,SystemResetWarning,0833.9,5.01,000.00,028.1,026.5,000.0,036.4,029.7,29.3,0002.3,0020.34,0030.88,0019.12
2023-09-06 17:24:00,SystemResetWarning,0833.9,4.99,000.00,028.1,026.7,000.0,036.5,029.8,29.2,0002.2,0020.35,0031.63,0019.14
2023-09-06 17:25:00,SystemResetWarning,0834.0,5.00,000.00,028.1,026.9,000.0,036.5,029.8,29.3,0002.2,0020.40,0032.16,0019.17
2023-09-06 17:26:00,SystemResetWarning,0834.0,5.01,000.00,028.2,027.1,000.0,036.5,029.9,29.1,0002.4,0020.45,0032.32,0019.25
2023-09-06 17:27:00,SystemResetWarning,0833.9,5.00,000.00,028.2,027.2,000.0,036.5,030.0,28.5,0002.4,0020.51,0032.02,0019.32
2023-09-06 17:28:00,SystemResetWarning,0833.8,4.99,000.00,028.3,026.7,000.0,036.5,029.9,28.3,0002.5,0020.53,0032.91,0019.37
2023-09-06 17:29:00,SystemResetWarning,0833.8,5.00,000.00,028.2,025.1,000.0,036.4,029.4,29.0,0002.4,0020.55,0032.91,0019.41
2023-09-06 17:30:00,SystemResetWarning,0833.8,5.01,000.00,028.0,024.4,000.0,036.4,029.2,29.5,0002.4,0020.61,0033.07,0019.45
2023-09-06 17:31:00,SystemResetWarning,0833.8,5.01,000.00,028.0,024.6,000.0,036.4,029.3,29.6,0002.4,0020.65,0033.71,0019.46
2023-09-06 17:32:00,SystemResetWarning,0833.8,5.00,000.00,027.9,025.0,000.0,036.4,029.3,29.9,0002.5,0020.71,0034.07,0019.48
2023-09-06 17:33:00,SystemResetWarning,0833.8,4.99,000.00,027.9,025.4,000.0,036.4,029.4,29.8,0002.4,0020.64,0034.61,0019.43
2023-09-06 17:34:00,SystemResetWarning,0833.8,5.01,000.00,027.9,025.7,000.0,036.4,029.5,30.1,0002.5,0020.61,0035.15,0019.38
2023-09-06 17:35:00,SystemResetWarning,0833.8,5.00,000.00,028.0,026.1,000.0,036.4,029.6,29.7,0002.5,0020.61,0034.21,0019.38
2023-09-06 17:36:00,SystemResetWarning,0833.8,5.00,000.00,028.0,026.3,000.0,036.4,029.6,30.0,0002.5,0020.65,0034.03,0019.39
2023-09-06 17:37:00,SystemResetWarning,0833.8,5.00,000.00,028.0,026.6,000.0,036.4,029.7,29.6,0002.3,0020.64,0034.22,0019.36
2023-09-06 17:38:00,SystemResetWarning,0833.8,5.00,000.00,028.1,026.8,000.0,036.4,029.8,29.3,0002.3,0020.67,0034.70,0019.36
2023-09-06 17:39:00,SystemResetWarning,0833.8,5.00,000.00,028.1,027.0,000.0,036.4,029.8,29.6,0002.4,0020.70,0034.34,0019.38
2023-09-06 17:40:00,SystemResetWarning,0833.8,4.99,000.00,028.2,026.8,000.0,036.4,029.8,29.6,0002.5,0020.69,0034.47,0019.38
2023-09-06 17:41:00,SystemResetWarning,0833.8,4.98,000.00,028.1,025.4,000.0,036.4,029.4,29.4,0002.5,0020.64,0034.36,0019.34
2023-09-06 17:42:00,SystemResetWarning,0833.8,5.01,000.00,028.0,024.4,000.0,036.3,029.1,29.4,0002.5,0020.59,0033.32,0019.33
2023-09-06 17:43:00,SystemResetWarning,0833.8,5.02,000.00,027.9,024.4,000.0,036.3,029.1,29.4,0002.4,0020.52,0032.67,0019.29
2023-09-06 17:44:00,SystemResetWarning,0833.8,4.99,000.00,027.8,024.8,000.0,036.3,029.1,29.5,0002.4,0020.58,0033.02,0019.29
2023-09-06 17:45:00,SystemResetWarning,0833.7,4.99,000.00,027.8,025.2,000.0,036.3,029.3,29.2,0002.3,0020.53,0032.50,0019.23
2023-09-06 17:46:00,SystemResetWarning,0833.6,5.01,000.00,027.8,025.5,000.0,036.3,029.4,29.2,0002.4,0020.51,0032.51,0019.16
2023-09-06 17:47:00,SystemResetWarning,0833.4,5.01,000.00,027.9,025.9,000.0,036.3,029.5,29.5,0002.5,0020.41,0032.46,0019.10
2023-09-06 17:48:00,SystemResetWarning,0833.5,5.00,000.00,027.9,026.2,000.0,036.3,029.5,29.6,0002.5,0020.39,0032.59,0019.04
2023-09-06 17:49:00,SystemResetWarning,0833.7,5.00,000.00,027.9,026.4,000.0,036.3,029.6,30.2,0002.4,0020.26,0031.99,0018.93
2023-09-06 17:50:00,SystemResetWarning,0833.8,5.00,000.00,028.0,026.7,000.0,036.3,029.7,30.0,0002.3,0020.11,0031.86,0018.79
2023-09-06 17:51:00,SystemResetWarning,0833.8,5.00,000.00,028.0,026.9,000.0,036.3,029.7,29.9,0002.2,0020.02,0031.36,0018.70
2023-09-06 17:52:00,SystemResetWarning,0833.8,4.99,000.00,028.1,026.9,000.0,036.4,029.8,30.0,0002.1,0019.91,0031.20,0018.59
2023-09-06 17:53:00,SystemResetWarning,0833.8,4.99,000.00,028.1,025.8,000.0,036.3,029.5,29.8,0002.0,0019.87,0030.88,0018.56
2023-09-06 17:54:00,SystemResetWarning,0833.7,5.01,000.00,027.9,024.5,000.0,036.2,029.1,29.6,0001.9,0019.85,0031.07,0018.56
2023-09-06 17:55:00,SystemResetWarning,0833.7,5.01,000.00,027.8,024.4,000.0,036.2,029.1,29.4,0001.8,0019.76,0030.72,0018.50
2023-09-06 17:56:00,SystemResetWarning,0833.7,5.01,000.00,027.8,024.6,000.0,036.2,029.1,29.7,0001.8,0019.69,0029.66,0018.47
2023-09-06 17:57:00,SystemResetWarning,0833.7,4.99,000.00,027.8,025.0,000.0,036.2,029.2,29.8,0001.7,0019.62,0029.71,0018.44
2023-09-06 17:58:00,SystemResetWarning,0833.7,4.99,000.00,027.8,025.4,000.0,036.2,029.3,29.7,0001.6,0019.60,0029.55,0018.42
2023-09-06 17:59:00,SystemResetWarning,0833.7,5.00,000.00,027.8,025.8,000.0,036.2,029.4,30.0,0001.5,0019.47,0029.04,0018.35
